Regional Weather Roundup
Issued by NWS Newport/Morehead, NC

Current Version | Previous Version | Graphics & Text | Print | Product List | Glossary On
Versions: 1 2 3 4 5 6 7 8 9 10 11 12 13 14 15 16 17 18 19 20 21 22 23 24 25 26 27 28 29 30 31 32 33 34 35 36 37 38 39 40 41 42 43 44 45 46 47 48 49 50
000 ASUS42 KMHX 232113 RWRMHX WEATHER ROUNDUP FOR EASTERN NORTH CAROLINA NATIONAL WEATHER SERVICE NEWPORT/MOREHEAD CITY NC 500 PM EDT SUN JUL 23 2017 NOTE: "FAIR" INDICATES FEW OR NO CLOUDS BELOW 12,000 FEET WITH NO SIGNIFICANT WEATHER AND/OR OBSTRUCTIONS TO VISIBILITY NCZ015>017-031-032-045>047-102-103-232200- NORTH COAST CITY SKY/WX TMP DP RH WIND PRES REMARKS EDENTON MOSUNNY 95 80 60 S9 29.80F HX 114 ELIZABETH CITY CLOUDY 78 76 93 SW5 29.78F KITTY HAWK LGT RAIN 78 64 62 SE8 29.81F MANTEO HVY RAIN 78 70 75 NE17 29.85R $$ NCZ045>047-081-094-103-104-232200- CENTRAL COAST CITY SKY/WX TMP DP RH WIND PRES REMARKS FRISCO SUNNY 84 76 76 SW13G21 29.86S $$ NCZ095-097-098-100-101-232200- SOUTHERN COAST CITY SKY/WX TMP DP RH WIND PRES REMARKS BEAUFORT MOSUNNY 86 81 85 SW18G28 29.88R HX 102 CEDAR ISLAND NOT AVBL JACKSONVILLE SUNNY 89 79 72 S14G23 29.84F HX 104 PINEY ISLAND PTCLDY N/A N/A N/A SW22G30 29.86R WILMINGTON SUNNY 89 77 67 S20 29.86S HX 101 $$ NCZ011>013-027>030-043-044-078>080-089-090>093-098-232200- COASTAL PLAIN CITY SKY/WX TMP DP RH WIND PRES REMARKS AHOSKIE N/A 91 77 64 CALM 29.79F HX 104 CLINTON SUNNY 95 78 57 SW6 29.82F HX 110 ELIZABETHTOWN NOT AVBL GOLDSBORO NOT AVBL GREENVILLE SUNNY 97 75 49 SW10 29.82F HX 109 HAVELOCK MOSUNNY 88 77 69 S16G26 29.87R HX 100 KENANSVILLE CLOUDY 86 79 79 SE3 29.83S KINSTON MOSUNNY 97 73 46 S12G21 29.82F HX 107 NEW BERN LGT RAIN 85 81 88 S10 29.85F FOG HX 100 RICHLANDS SUNNY 93 80 65 S14 29.84F HX 112 ROCKY MOUNT MOSUNNY 96 77 54 S8 29.79F HX 111 WASHINGTON SUNNY 94 76 55 SW14 29.81S HX 107 WHITEVILLE MOSUNNY 90 77 64 S13G21 29.84F HX 103 $$ AMZ130-135-150-152-154-156-158-170-250-252-270-ANZ085-086-088-633-658-670-232200- MARINE OBSERVATIONS STATION/POSITION TIME TEMP WIND PRES WAVE SWELL AIR SEA DIR/SP/G HT/PER HT/PER (UTC) (F) (DEG/KT/KT) (MB) (FT/S) (FT/S) CHESAPEAKE LIGHT NOT AVBL 64 E VA BEACH 2050 81 81 200/ 12/ 14 1009.8 4/ 6 3/ 6 DUCK 2048 75 58 40/ 4/ 7 1008.4 2 E DUCK 2100 63 N/A 2/ 9 OREGON INLET 2048 200/ 22/ 27 N/A 13E OREGON INLT 2048 76 N/A 4/ 4 2/13 HATTERAS CG 2048 82 78 220/ 13/ 17 1011.3 DIAMOND BUOY 2050 84 84 220/ 23/ 25 1011.2 7/ 7 CAPE LOOKOUT 2100 84 210/ 16/ 23 1011.5 BEAUFORT LAB 2048 84 81 210/ 13/ 20 1011.2 30 SE NEW RVR IN 2008 82 82 220/ 19/ 25 1012.1 30 SE NEW RVR IN 2043 82 N/A 6/ 6 2/11 27 SE WRIGHTSVLE 2008 83 83 210/ 19/ 27 1012.1 5 SE WRIGHTSVLE 2008 82 80 200/ 12/ 21 1012.1 225 S CAPE HAT 2050 83 84 240/ 17/ 21 1016.3 5/ 6 2/ 9 41 SE CHARLESTON 2050 83 84 200/ 21/ 27 1013.0 5/ 6 2/ 9 $$

USA.gov is the U.S. government's official web portal to all federal, state and local government web resources and services.